Temp
81 93 99 94 79 82 78 84 95 94 92 99 101 97 93 96 90 75 104 104 104 98 92 87 80 81 81 80 80 80 79 79 79 79 79 79 79 80 80 80 80 81 81 81 81 81 81 81 81
91 95 95 89 75 73 78 90 91 96 98 99 99 97 95 91 101 97 98 101 102 96 92 91 79 80 80 80 80 79 79 79 79 79 79 79 79 80 80 80 81 81 81 81 81 81 81 81 81
85 95 86 81 77 73 79 92 95 100 102 96 95 99 97 92 98 101 104 103 101 96 95 88 79 79 80 80 79 79 79 79 79 79 79 79 79 79 80 80 81 81 82 81 81 81 81 81 81
89 89 87 76 75 83 85 93 100 99 101 101 98 93 99 99 99 102 103 104 100 99 98 81 79 79 79 79 79 79 79 79 79 79 79 79 79 79 79 80 80 81 82 81 81 81 81 81 81
89 87 75 74 77 85 93 96 98 97 97 99 99 92 93 97 101 101 102 103 99 99 97 88 79 79 79 79 79 79 79 79 79 79 79 79 79 79 79 80 80 81 81 81 81 81 80 80 80
79 83 72 71 78 86 92 98 98 97 98 100 98 94 94 99 98 101 103 102 102 99 94 89 80 79 79 79 79 79 78 78 79 79 79 79 79 79 79 80 80 81 81 80 80 80 80 79 79
76 77 72 76 80 83 90 98 96 95 95 97 103 91 93 96 101 101 102 102 102 100 95 90 88 83 79 78 78 78 78 78 78 78 78 78 79 79 80 80 81 81 80 80 80 80 79 79 78
80 78 73 77 77 81 94 96 99 95 94 105 104 91 90 94 97 101 102 103 102 101 98 94 91 91 88 86 78 78 78 78 78 78 78 78 79 79 80 79 81 80 79 80 80 79 79 78 78
85 70 68 73 78 83 94 93 100 102 96 99 102 98 95 96 97 97 98 100 100 99 97 97 96 94 94 92 85 79 79 79 78 79 79 79 92 88 86 82 81 80 79 80 79 79 79 78 78
75 69 70 81 85 84 91 93 95 93 92 92 97 98 94 93 93 92 93 95 97 97 97 99 97 95 96 95 87 89 89 89 89 89 86 92 95 94 94 87 81 80 80 79 79 79 79 79 93
75 68 77 81 86 89 89 90 95 91 86 92 92 95 93 93 91 92 94 97 98 99 99 100 96 94 97 96 91 93 92 92 92 91 89 93 93 91 93 94 93 91 82 95 87 88 94 94 95
70 76 77 80 85 85 83 88 87 90 90 99 99 101 94 92 92 93 93 95 98 99 98 99 97 93 95 97 93 95 95 95 93 93 90 90 91 90 93 96 97 92 97 94 95 97 94 92 89
72 74 78 81 81 83 84 81 83 86 94 99 98 100 97 93 93 94 94 96 97 95 96 98 95 92 93 92 95 95 95 95 94 93 90 93 93 90 92 93 94 95 98 97 96 91 90 90 90
75 75 75 78 79 80 77 79 82 85 93 94 94 93 98 95 94 92 92 93 92 92 92 96 94 91 93 92 92 93 94 94 95 94 92 92 92 89 92 90 93 95 96 96 94 89 87 86 87
73 67 71 74 75 75 78 72 75 86 90 90 92 91 92 94 97 91 91 90 90 91 90 89 91 90 90 89 91 92 93 95 93 94 92 90 90 88 90 92 93 94 92 91 86 86 86 88 89
64 66 59 71 74 75 75 64 77 85 86 86 89 91 91 93 95 95 93 89 89 90 88 88 92 89 88 88 90 91 93 94 93 94 92 90 89 88 87 92 92 92 89 88 87 86 87 86 88
61 54 59 64 75 73 71 66 78 86 83 83 87 90 90 91 93 93 94 91 87 87 87 87 88 89 88 88 89 88 90 91 94 94 93 90 91 91 89 93 86 84 87 86 85 84 83 81 81
54 56 59 61 70 72 69 68 77 84 83 82 87 89 89 88 90 93 92 92 88 86 84 85 85 88 88 89 88 89 92 92 94 94 93 89 90 91 88 82 79 84 83 82 80 78 79 77 75
57 54 58 65 71 69 68 69 74 80 83 82 85 87 88 88 91 92 91 91 88 87 84 82 83 83 84 85 86 86 87 84 88 91 92 89 90 87 81 81 80 81 79 77 76 78 74 74 74
51 48 55 63 71 69 68 68 74 78 81 84 85 86 88 89 89 89 88 89 87 86 84 83 82 79 80 82 78 81 82 85 91 91 88 88 82 81 81 80 80 79 77 75 73 73 75 74 71
52 50 53 56 67 70 67 65 69 76 80 83 86 87 88 89 87 87 87 87 86 85 84 82 81 81 78 80 82 83 85 83 82 81 81 78 79 80 80 80 79 77 80 77 74 73 68 63 68
45 59 57 58 57 50 67 53 66 71 73 78 82 86 88 88 89 88 87 86 85 86 86 84 83 82 81 81 84 80 83 81 82 82 80 75 78 79 78 78 77 77 78 71 68 67 66 67 70
54 55 58 56 54 56 62 57 66 72 68 74 79 85 88 90 90 87 89 88 88 87 86 86 84 83 84 83 85 84 83 84 80 78 72 72 73 76 77 76 75 73 69 68 64 64 64 68 71
63 56 54 45 47 39 59 59 62 69 70 74 80 84 88 91 91 90 90 89 88 90 88 85 83 82 84 84 85 83 83 80 78 72 70 72 72 73 75 75 68 63 66 63 68 68 69 70 69
56 45 34 33 41 44 63 60 64 75 77 79 79 84 88 91 91 90 88 89 88 88 88 85 83 81 83 83 83 81 81 81 77 73 75 72 71 70 66 65 64 67 65 67 68 70 69 69 68
56 46 37 37 43 50 63 57 63 78 82 84 85 86 89 90 92 90 90 90 88 87 87 86 80 78 78 79 80 83 79 82 80 79 79 75 72 68 63 65 66 65 63 64 66 70 72 68 68
58 40 50 42 54 54 60 67 68 79 80 83 84 85 87 89 90 89 91 91 89 89 87 86 82 81 82 82 79 76 75 80 77 78 75 73 64 64 64 63 60 61 64 65 66 69 68 67 67
60 51 41 40 42 34 58 59 62 70 75 80 82 84 86 89 90 91 91 90 91 89 86 84 83 80 79 80 81 76 81 77 75 71 65 64 62 59 58 59 60 60 61 65 65 67 68 65 66
62 58 56 52 48 42 49 48 68 73 76 79 83 85 86 87 91 91 92 91 92 84 82 80 80 79 77 73 77 74 71 67 66 63 61 59 57 57 58 59 59 59 61 63 61 66 65 64 64
67 63 55 38 44 49 57 40 72 75 78 81 83 87 88 89 92 92 92 90 89 88 80 79 76 76 72 68 66 62 61 60 58 57 57 57 57 58 58 59 58 61 61 63 64 64 64 63 62
MSLP
1010.26 1008.95 1007.95 1006.77 1005.34 1002.11 999.14 997.27 996.22 994.82 994.98 995.48 995.57 995.39 995.65 995.74 996.75 998.86 999.94 1000.88 1001.56 1003.61 1005.27 1006.62 1007.16 1007.72 1008.26 1008.59 1008.97 1009.46 1009.94 1010.35 1010.64 1011.14 1011.68 1012.08 1012.38 1012.37 1012.54 1012.81 1013.01 1013.17 1013.26 1013.43 1013.62 1013.72 1013.75 1013.77 1013.72
1009.05 1007.88 1007.29 1005.48 1003.32 1000.15 997.49 996.75 994.99 994.70 995.08 996.09 996.41 996.52 996.51 996.49 997.26 999.49 1000.56 1001.42 1002.29 1004.18 1005.45 1006.23 1007.47 1007.92 1008.39 1008.71 1009.20 1009.61 1010.09 1010.49 1010.90 1011.31 1011.71 1012.16 1012.46 1012.64 1012.85 1013.04 1013.28 1013.40 1013.53 1013.64 1013.76 1013.89 1013.91 1013.86 1013.77
1009.67 1007.73 1006.18 1003.91 1001.65 998.92 996.85 995.29 994.82 994.33 995.03 996.24 996.49 996.89 996.70 997.75 999.03 999.41 1000.41 1001.58 1002.71 1004.46 1005.39 1006.50 1007.53 1008.23 1008.50 1008.81 1009.42 1009.78 1010.34 1010.81 1011.20 1011.50 1011.78 1012.18 1012.49 1012.84 1013.14 1013.26 1013.49 1013.62 1013.70 1013.83 1013.89 1013.87 1013.92 1013.88 1013.82
1008.08 1007.11 1005.67 1002.19 999.31 997.96 996.82 995.36 993.88 994.07 994.75 995.86 996.59 996.63 997.71 999.41 999.41 999.94 1001.12 1001.67 1003.03 1004.17 1005.18 1007.30 1007.66 1008.42 1009.05 1009.03 1009.63 1010.08 1010.61 1011.06 1011.43 1011.81 1011.98 1012.29 1012.62 1013.04 1013.43 1013.67 1013.76 1013.85 1013.92 1014.02 1014.11 1014.10 1014.03 1014.01 1013.97
1007.63 1005.34 1003.20 1000.73 998.89 997.41 996.08 995.87 994.70 993.87 994.75 995.03 996.28 996.82 997.90 999.77 1000.29 1000.81 1001.30 1001.94 1002.99 1004.01 1005.21 1007.35 1007.94 1008.44 1009.28 1009.59 1010.02 1010.40 1010.84 1011.34 1011.57 1011.93 1012.22 1012.56 1012.88 1013.26 1013.56 1013.85 1013.91 1013.98 1014.06 1014.11 1014.13 1014.12 1013.99 1013.96 1013.90
1006.33 1004.84 1001.62 999.37 997.91 997.12 996.16 995.16 994.90 994.29 994.98 994.79 995.43 996.95 998.06 999.82 1000.42 1000.85 1001.32 1002.03 1002.97 1003.97 1005.55 1007.23 1008.34 1008.53 1009.38 1009.95 1010.26 1010.67 1011.15 1011.57 1011.87 1012.12 1012.40 1012.75 1013.01 1013.41 1013.67 1013.84 1013.90 1013.98 1014.04 1013.99 1013.98 1013.97 1014.02 1013.97 1013.88
1005.03 1003.31 1000.70 999.16 997.14 996.11 995.32 995.50 994.62 994.73 995.03 994.67 995.22 996.56 998.55 999.58 1000.22 1000.82 1001.52 1002.32 1002.99 1004.20 1005.68 1007.12 1008.11 1008.91 1009.67 1010.15 1010.52 1010.85 1011.36 1011.79 1012.09 1012.35 1012.59 1012.87 1013.15 1013.38 1013.59 1013.78 1013.85 1013.95 1013.99 1013.98 1013.86 1013.72 1013.70 1013.71 1013.62
1005.08 1003.42 1000.73 998.87 997.16 995.17 995.02 994.82 994.94 995.11 995.23 995.16 995.49 996.38 997.62 999.54 1000.67 1000.89 1001.44 1002.06 1002.88 1004.08 1005.38 1006.69 1007.61 1008.46 1009.32 1010.10 1010.81 1011.07 1011.55 1011.91 1012.26 1012.42 1012.67 1012.90 1013.13 1013.32 1013.47 1013.59 1013.65 1013.79 1013.88 1013.79 1013.68 1013.52 1013.44 1013.32 1013.11
1005.01 1003.05 1000.08 998.70 997.42 996.23 995.52 994.46 994.32 995.09 996.19 995.96 995.82 997.13 998.60 999.88 1000.64 1000.51 1001.44 1001.94 1002.86 1003.81 1005.11 1006.05 1006.89 1007.77 1008.41 1009.35 1010.55 1011.38 1011.81 1012.11 1012.38 1012.51 1012.67 1012.78 1012.15 1012.66 1012.82 1013.15 1013.43 1013.54 1013.55 1013.45 1013.34 1013.24 1013.01 1012.61 1012.30
1004.03 1002.02 1000.26 999.57 998.14 997.03 995.97 994.93 994.71 995.31 996.05 996.38 996.22 997.50 999.34 1000.29 1000.69 1000.54 1001.10 1001.84 1002.60 1003.40 1004.55 1005.35 1006.17 1007.14 1007.64 1008.70 1010.20 1010.71 1011.32 1011.52 1011.72 1011.85 1012.25 1011.66 1011.21 1011.55 1011.64 1012.46 1013.01 1013.05 1012.99 1012.82 1012.82 1012.68 1012.26 1012.16 1011.16
1003.37 1001.58 1000.90 999.83 998.76 997.70 996.31 995.31 995.34 995.51 995.68 996.30 996.31 997.00 999.09 1000.02 1000.75 1000.69 1000.67 1001.52 1002.23 1003.07 1003.98 1004.75 1005.78 1006.87 1007.05 1008.00 1009.57 1009.91 1010.44 1010.68 1011.04 1011.23 1011.65 1010.97 1011.34 1011.79 1011.78 1011.45 1011.80 1011.93 1012.38 1011.31 1012.06 1011.80 1011.25 1011.28 1011.02
1002.99 1002.05 1001.45 1000.64 999.31 998.57 997.59 997.24 996.23 995.94 996.17 995.82 996.27 996.50 998.20 999.40 1000.16 1000.50 1000.74 1001.17 1001.91 1002.76 1003.68 1004.52 1005.65 1006.73 1006.84 1007.47 1008.91 1009.00 1009.48 1009.83 1010.30 1010.70 1011.30 1011.20 1011.29 1011.39 1011.02 1010.83 1010.91 1011.40 1010.67 1011.04 1010.91 1010.57 1010.94 1011.23 1011.32
1002.43 1001.77 1001.37 1000.86 1000.36 999.54 999.00 998.45 998.02 997.04 996.69 996.19 995.81 995.59 996.61 998.88 999.70 1000.41 1000.85 1001.02 1001.78 1002.67 1003.56 1004.35 1005.55 1006.78 1007.08 1007.66 1008.14 1008.45 1008.77 1009.40 1009.74 1010.35 1011.00 1010.78 1010.79 1011.02 1011.15 1011.09 1010.97 1010.70 1010.47 1010.37 1010.46 1011.06 1011.57 1011.67 1011.76
1002.50 1001.95 1001.66 1001.08 1000.49 1000.31 999.98 999.09 998.90 997.87 997.15 996.48 996.40 996.71 996.07 997.66 999.04 1000.27 1000.92 1001.26 1002.11 1002.78 1003.62 1004.26 1005.55 1006.93 1007.37 1007.75 1008.10 1008.39 1008.63 1009.11 1009.44 1009.90 1010.37 1010.63 1010.64 1011.07 1011.02 1011.22 1010.84 1010.49 1010.51 1010.29 1010.82 1011.73 1012.22 1012.30 1012.14
1003.40 1002.47 1002.02 1001.02 1000.90 1000.44 1000.43 999.51 998.49 998.16 997.62 996.64 996.37 997.38 997.35 997.46 998.08 999.69 1000.84 1001.51 1002.34 1003.08 1003.92 1004.64 1005.44 1006.79 1007.43 1008.04 1008.36 1008.57 1008.67 1008.78 1009.34 1009.61 1010.17 1010.62 1010.80 1011.01 1010.97 1010.72 1010.50 1010.44 1010.74 1011.15 1011.80 1012.06 1012.00 1011.84 1011.70
1003.93 1003.02 1001.67 1000.56 1000.49 1000.35 1000.51 998.15 997.98 998.16 997.65 996.77 996.54 997.04 997.52 997.59 997.72 998.77 1000.32 1001.84 1002.87 1003.46 1004.08 1004.72 1005.61 1006.61 1007.52 1008.08 1008.42 1008.63 1008.43 1008.71 1009.14 1009.41 1010.09 1010.57 1010.83 1010.83 1011.03 1010.58 1010.44 1010.74 1011.61 1012.18 1012.30 1012.30 1012.21 1012.02 1011.66
1003.72 1002.01 1000.82 1000.06 999.64 999.78 999.72 997.76 997.31 997.11 997.38 996.76 996.38 996.57 997.13 997.69 997.90 998.48 999.71 1001.51 1002.94 1003.55 1004.19 1004.92 1005.75 1006.35 1007.21 1007.97 1008.32 1008.66 1008.48 1008.90 1008.91 1009.11 1009.65 1010.35 1010.61 1010.71 1010.81 1010.50 1011.05 1012.03 1012.36 1012.62 1012.80 1012.90 1012.72 1012.66 1012.61
1002.70 1001.48 1000.84 999.27 998.95 998.69 998.04 997.40 996.99 996.10 996.30 996.41 995.82 996.07 996.63 997.39 997.76 998.49 999.65 1000.93 1002.60 1003.62 1004.51 1005.08 1005.96 1006.10 1006.87 1007.57 1008.03 1008.43 1008.36 1008.85 1008.66 1009.04 1009.27 1010.17 1010.52 1010.59 1011.04 1011.69 1012.12 1012.23 1012.84 1013.20 1013.40 1013.53 1013.27 1013.57 1013.50
1004.17 1002.65 1000.13 998.84 998.52 997.85 997.09 996.93 996.70 996.19 995.27 995.45 995.55 995.70 996.03 996.81 997.57 998.50 999.67 1000.66 1002.17 1003.38 1004.51 1005.25 1005.76 1006.31 1006.88 1007.34 1007.74 1008.08 1008.14 1008.73 1008.80 1009.17 1009.35 1010.09 1010.38 1010.63 1011.50 1012.20 1012.59 1012.83 1012.97 1013.55 1013.90 1013.87 1014.15 1014.05 1013.66
1005.27 1004.22 1001.08 999.32 997.79 997.46 996.84 996.42 996.38 996.11 994.91 994.33 994.84 995.08 995.58 996.22 997.28 998.31 999.52 1000.43 1001.76 1002.91 1004.05 1005.02 1005.84 1006.62 1006.66 1007.59 1008.47 1008.29 1008.70 1008.70 1009.00 1009.33 1009.54 1010.01 1011.00 1011.33 1011.83 1012.34 1012.90 1012.95 1013.40 1013.80 1014.09 1014.08 1013.77 1013.79 1013.50
1004.75 1003.70 1002.30 1000.21 997.90 997.30 996.95 995.88 995.62 995.54 995.22 994.71 994.63 994.89 995.28 995.77 996.84 997.93 999.12 1000.11 1001.43 1002.46 1003.54 1004.78 1005.72 1006.47 1007.35 1007.40 1007.86 1008.04 1008.69 1008.97 1009.63 1009.97 1010.49 1011.20 1011.30 1011.75 1012.10 1012.37 1012.80 1013.13 1013.14 1013.79 1014.32 1014.40 1014.31 1013.86 1013.48
1003.86 1003.03 1002.50 1000.67 998.68 997.67 996.66 994.93 994.30 994.74 994.89 994.95 994.41 994.09 994.29 995.34 996.28 997.55 998.72 999.93 1001.05 1002.11 1003.29 1004.38 1005.30 1006.09 1006.93 1007.10 1007.24 1007.67 1008.20 1008.58 1009.48 1010.00 1010.78 1011.63 1011.70 1012.06 1012.53 1012.85 1013.14 1013.45 1013.73 1014.52 1014.99 1014.99 1014.61 1014.28 1013.87
1002.32 1003.56 1001.88 1001.49 1000.20 998.38 995.41 995.03 992.19 993.31 993.70 993.87 994.02 993.52 993.68 994.59 995.67 997.03 998.07 999.48 1000.69 1001.81 1002.85 1003.76 1004.77 1005.57 1006.27 1006.93 1006.84 1007.77 1008.17 1008.87 1009.87 1010.53 1011.47 1012.09 1012.53 1012.66 1012.91 1013.24 1013.74 1014.42 1014.78 1015.46 1015.63 1015.13 1015.21 1014.92 1014.61
1002.21 1003.01 1002.89 1003.02 1001.88 998.69 994.46 994.02 991.24 990.63 992.04 992.87 993.08 993.14 993.05 993.79 995.14 996.62 997.66 999.02 1000.18 1001.23 1002.36 1003.39 1004.34 1005.07 1005.69 1006.43 1006.96 1007.56 1008.05 1008.93 1009.96 1011.03 1011.73 1012.36 1012.65 1012.81 1013.12 1013.55 1014.61 1015.23 1015.43 1015.50 1015.35 1015.47 1015.88 1015.59 1015.45
1002.53 1002.87 1003.25 1002.53 999.91 995.64 992.89 992.70 989.53 988.98 989.92 990.67 991.63 992.24 992.58 993.13 994.56 996.09 997.11 998.20 999.56 1000.53 1001.74 1003.01 1004.05 1004.82 1005.60 1006.44 1007.05 1007.87 1008.32 1008.93 1009.99 1010.94 1011.53 1012.11 1012.67 1013.16 1014.21 1014.65 1015.13 1015.39 1015.58 1015.72 1015.47 1016.00 1016.08 1015.92 1015.97
1000.85 1002.26 1001.04 999.09 996.59 993.82 992.78 990.74 989.77 988.86 988.88 989.81 990.84 991.59 992.05 992.76 993.91 995.57 996.58 997.61 999.08 1000.40 1001.45 1002.81 1004.07 1005.14 1005.58 1006.65 1007.35 1007.73 1008.38 1009.07 1009.66 1010.49 1010.84 1012.16 1012.92 1013.91 1014.72 1015.17 1015.40 1015.74 1016.02 1016.19 1016.39 1016.09 1015.89 1016.34 1016.20
998.96 1002.15 1002.27 1000.61 996.29 993.62 991.59 990.72 991.22 988.97 988.58 988.96 989.88 990.92 991.34 992.29 993.45 995.09 996.25 997.23 998.57 999.87 1001.09 1002.42 1004.06 1005.22 1005.77 1006.70 1007.22 1007.84 1008.59 1008.87 1009.54 1010.35 1011.35 1012.16 1013.74 1014.64 1015.16 1015.64 1016.15 1016.35 1016.46 1016.82 1016.75 1016.68 1016.48 1016.81 1016.55
999.03 1001.46 1002.23 1001.16 997.31 994.66 991.61 991.19 989.61 989.41 988.70 988.96 989.35 990.14 991.21 992.21 993.17 994.66 995.99 997.13 998.47 999.85 1001.29 1002.59 1004.02 1004.94 1005.91 1006.55 1007.03 1008.03 1008.49 1009.46 1010.34 1011.45 1012.61 1013.45 1014.38 1015.18 1015.79 1016.27 1016.38 1016.78 1017.41 1016.98 1017.30 1016.83 1016.92 1017.36 1017.02
997.14 997.83 998.86 998.82 996.67 995.51 992.36 993.43 990.71 989.73 989.80 989.29 989.44 990.27 991.47 992.46 992.96 994.52 995.73 997.34 998.59 1000.47 1002.19 1003.29 1004.11 1005.00 1006.20 1007.17 1007.77 1008.84 1009.84 1010.98 1011.82 1012.71 1013.74 1014.61 1015.28 1015.96 1016.31 1016.97 1017.15 1017.52 1017.73 1017.92 1017.98 1017.17 1017.65 1017.46 1017.14
996.08 996.51 998.48 999.21 997.40 995.50 993.17 995.51 990.58 990.66 990.38 990.34 990.29 990.48 991.58 992.66 993.20 994.52 996.05 997.50 998.55 1000.37 1002.29 1003.65 1004.79 1006.06 1007.42 1008.43 1009.46 1010.74 1011.57 1012.28 1012.98 1013.81 1014.74 1015.60 1016.34 1017.09 1017.08 1017.39 1017.92 1017.78 1017.70 1018.31 1018.33 1018.11 1018.03 1017.89 1017.26
Wind_Speed
15 14 11 9 10 10 21 23 22 19 4 6 8 2 10 9 14 7 12 8 20 21 21 18 18 18 18 18 18 18 17 16 16 14 13 12 11 12 12 10 10 10 9 9 8 7 6 5 4
16 8 8 9 13 18 18 24 24 19 4 7 5 4 8 7 15 13 12 10 21 21 19 20 17 18 18 18 18 17 16 15 14 14 14 13 11 11 11 10 9 9 8 8 6 5 4 3 2
13 12 10 8 19 22 21 24 21 14 14 7 5 2 5 12 7 10 15 19 22 20 19 19 18 16 18 19 17 17 16 15 14 15 15 13 12 11 10 9 8 7 7 5 4 3 2 2 3
8 8 10 16 25 30 31 27 18 17 18 12 9 6 9 6 3 4 14 20 21 21 20 20 18 16 14 18 17 16 16 15 14 14 14 13 13 11 9 8 7 6 5 4 2 2 3 4 5
11 10 14 21 29 30 24 27 29 14 18 17 13 11 5 8 6 8 16 18 20 20 20 19 18 18 15 16 16 16 15 14 14 14 13 13 12 11 9 7 6 5 4 3 2 3 4 5 7
11 13 18 23 28 30 29 25 23 21 17 17 14 12 7 10 9 12 16 19 19 20 21 19 16 18 16 15 16 15 14 13 13 13 13 12 11 10 8 7 5 4 2 1 2 4 6 7 8
20 17 22 27 25 30 27 27 26 20 16 23 12 15 7 9 11 13 16 18 20 20 20 17 17 16 15 15 15 15 14 13 12 12 12 11 11 10 8 7 5 3 1 2 3 5 6 7 8
17 19 30 27 25 32 22 24 26 18 23 18 9 8 12 13 12 15 17 19 20 19 20 19 17 17 16 14 13 14 13 13 12 13 12 11 11 10 9 9 7 4 1 3 5 6 7 8 10
20 20 23 31 29 23 23 24 21 16 20 22 18 11 14 16 15 17 16 19 17 17 19 19 19 17 16 16 13 13 13 13 12 12 11 12 10 11 12 9 8 4 5 7 8 8 9 13 15
22 19 29 25 25 23 26 27 19 15 18 23 17 13 15 15 15 18 20 19 20 21 21 19 19 18 17 13 15 13 12 11 11 11 11 10 8 6 2 8 10 10 11 12 12 11 14 12 9
25 26 24 25 25 25 24 21 22 20 20 26 23 18 15 16 17 19 21 19 20 20 17 20 17 15 17 14 11 8 8 8 9 11 10 8 6 6 7 6 8 9 13 8 10 10 7 8 5
26 28 27 27 25 22 22 17 21 18 22 18 24 25 22 19 18 21 19 20 20 20 18 20 18 14 13 12 11 11 10 9 8 9 10 6 5 5 3 3 1 5 6 3 6 4 4 4 6
26 27 26 22 22 25 19 20 24 24 19 23 5 18 25 20 17 18 17 18 19 19 19 19 18 14 10 11 11 10 10 9 10 10 11 8 9 6 5 3 5 3 2 6 2 8 5 7 8
20 24 24 24 22 22 24 23 22 24 23 22 10 11 13 22 21 18 19 18 16 15 15 18 18 15 13 10 9 9 8 9 9 9 11 11 7 6 6 6 7 3 5 4 4 7 4 4 4
23 23 21 21 24 23 22 28 26 25 20 22 18 13 13 14 21 23 20 17 16 16 15 13 17 17 13 13 9 8 9 10 9 9 10 11 9 8 6 7 5 4 3 1 6 3 3 1 4
16 20 23 24 23 25 24 27 29 25 25 22 23 18 17 16 17 21 23 19 15 16 16 15 14 17 15 13 10 9 9 8 8 7 8 12 11 10 8 7 7 5 2 3 2 2 2 2 1
20 20 24 27 24 23 28 30 28 26 25 25 25 25 15 17 16 19 21 22 17 14 17 18 17 19 18 13 11 10 7 8 8 8 9 11 11 10 8 8 8 4 2 3 3 4 4 4 7
20 24 23 25 23 24 27 31 26 22 27 27 21 18 20 18 18 18 20 21 21 17 13 13 12 15 16 12 10 10 8 9 8 8 8 10 9 10 7 9 8 3 4 3 4 3 5 4 5
25 27 27 20 24 24 25 26 25 22 23 28 28 23 21 20 16 18 19 20 20 19 17 16 14 11 10 9 11 9 9 5 4 6 7 10 10 6 10 6 7 4 6 5 3 3 4 4 5
17 25 27 26 21 22 26 22 27 25 20 19 27 23 22 19 17 19 19 21 21 19 18 16 15 13 14 9 4 6 5 6 8 7 6 7 10 9 8 8 8 7 7 6 4 3 4 0 5
19 23 22 30 20 22 21 25 26 26 24 16 23 25 24 19 19 19 21 19 19 20 19 18 17 15 10 10 9 6 4 3 5 6 6 7 10 9 9 9 6 7 6 5 3 2 3 1 3
18 20 26 28 15 16 22 18 21 28 25 26 20 24 24 23 21 19 21 21 20 19 18 18 17 16 13 12 10 10 10 8 6 6 6 6 8 9 8 7 7 5 4 4 3 2 2 5 4
22 19 11 14 17 22 24 20 19 25 27 29 27 22 26 26 22 21 22 21 20 18 17 16 16 16 14 13 11 10 9 6 7 6 9 7 7 9 9 7 6 5 5 4 5 5 6 2 5
15 11 9 9 15 15 23 21 22 25 29 30 28 25 25 27 24 20 20 21 19 18 17 16 18 16 14 14 12 12 11 11 9 8 8 8 7 6 8 8 7 6 6 3 4 5 4 7 6
7 3 4 5 9 14 24 25 20 28 31 35 30 27 26 24 23 21 21 21 20 20 19 16 17 17 16 15 11 11 9 9 10 11 9 9 7 5 7 5 7 5 3 4 6 5 5 6 5
19 12 5 3 11 10 20 15 11 22 29 30 29 26 25 25 23 21 22 21 21 21 19 16 14 13 13 11 11 11 10 9 8 11 8 6 6 6 9 8 6 4 8 5 3 3 4 4 4
11 4 11 13 15 11 14 17 9 8 23 25 28 27 26 25 23 23 21 21 20 19 19 18 18 16 15 14 10 8 10 8 5 7 9 7 10 8 9 9 8 7 5 3 3 4 6 5 6
15 11 3 4 9 5 18 14 11 13 20 20 25 25 23 23 23 21 21 19 18 17 15 14 15 13 11 9 7 7 7 8 10 12 12 11 11 11 9 8 9 7 6 6 7 5 6 7 6
11 19 15 5 8 6 11 4 7 17 13 17 22 22 22 22 21 20 20 19 18 17 14 11 10 11 11 11 9 10 11 13 13 12 12 13 12 10 11 9 8 7 6 3 4 6 4 6 8
14 11 5 4 8 7 3 3 5 12 4 20 18 21 23 21 18 20 20 19 20 18 16 8 14 16 15 14 14 15 13 14 14 14 14 12 12 11 9 11 6 4 5 7 8 7 7 8 7
Wind_Direction
268 235 235 256 241 234 249 241 243 251 220 240 323 316 335 44 11 63 115 135 129 136 147 153 143 151 152 146 146 145 143 145 143 140 139 139 134 127 124 125 124 123 119 113 106 103 98 80 60
283 242 234 257 237 241 238 238 245 237 195 64 279 231 258 61 58 104 142 156 136 139 148 148 144 148 151 146 146 144 143 142 139 137 139 138 132 128 130 127 128 124 116 110 106 92 77 58 18
257 243 240 224 233 238 248 241 223 225 224 174 248 264 1 60 59 131 105 146 137 148 157 138 144 150 153 143 145 141 140 140 138 140 139 138 133 129 131 129 128 120 113 107 104 96 43 341 332
226 209 248 251 235 228 242 257 260 222 218 180 226 256 102 52 111 84 146 149 141 151 153 138 142 145 153 141 144 140 140 140 138 140 137 136 132 127 123 122 117 110 102 92 71 22 347 331 333
241 240 232 230 239 247 237 233 261 223 234 188 202 223 124 108 93 132 155 155 153 147 139 151 143 140 147 142 141 141 141 139 138 138 137 135 129 128 124 121 113 104 94 78 28 339 321 325 322
218 234 236 231 236 237 245 251 227 251 239 235 183 229 107 112 150 147 161 153 159 150 137 148 143 141 145 145 143 140 137 138 139 138 134 132 128 126 126 128 119 111 90 50 345 324 319 321 313
234 225 237 245 245 234 236 239 250 238 224 242 185 203 105 149 139 152 159 158 151 147 146 153 156 142 140 142 143 139 137 138 136 132 128 131 132 136 142 139 130 118 79 338 312 307 308 303 301
235 251 248 241 246 250 235 236 233 208 245 254 218 204 195 154 159 150 161 166 152 150 147 156 158 160 162 154 144 140 139 135 133 130 133 137 141 152 161 167 159 147 224 270 277 283 290 283 269
223 244 239 243 244 250 259 249 225 210 234 248 244 205 87 134 161 152 163 162 160 160 152 161 161 160 166 158 150 142 142 138 135 140 149 167 176 177 167 118 147 183 226 244 251 256 262 260 259
229 233 245 247 252 256 258 251 234 225 220 240 235 118 124 144 168 167 168 171 171 169 164 163 165 162 161 157 151 172 164 170 180 178 177 209 161 173 52 140 181 204 222 232 232 234 241 253 272
226 241 253 242 259 263 266 273 249 238 217 226 231 176 164 165 177 178 174 178 175 172 170 164 164 166 163 156 163 175 171 173 186 184 193 222 175 176 204 173 192 198 210 240 209 201 227 6 306
237 241 242 262 268 257 259 272 266 220 239 228 218 224 164 182 185 182 187 174 177 174 174 160 162 174 174 147 178 173 177 180 186 184 194 160 207 164 246 227 75 202 214 64 228 282 65 333 353
237 245 248 252 256 260 274 242 257 261 240 258 288 230 174 181 188 185 185 179 174 175 173 167 159 175 177 154 187 177 183 178 187 180 193 189 217 181 190 155 257 341 318 244 232 43 40 360 358
258 249 257 254 252 247 248 251 245 246 257 240 171 255 189 179 180 186 191 179 180 169 170 168 163 170 183 190 192 178 192 182 187 185 187 214 215 169 186 195 227 240 242 44 11 54 5 338 327
265 259 261 248 244 242 244 248 244 243 235 238 200 198 231 206 185 180 191 183 180 169 166 166 169 169 185 191 185 197 185 189 193 195 171 206 216 165 229 224 221 202 76 149 88 158 176 244 5
261 257 248 238 227 235 240 242 232 236 233 226 236 200 205 219 211 180 180 178 181 178 165 160 181 171 185 190 180 201 189 200 200 192 186 206 203 181 219 218 221 114 102 175 152 90 66 53 25
246 248 237 244 224 226 220 241 238 222 225 237 218 219 186 211 210 183 180 173 177 179 170 176 183 181 180 187 183 211 177 214 202 196 194 198 203 198 221 238 83 112 159 62 68 69 14 52 9
245 236 237 256 225 220 222 232 242 224 217 219 224 203 194 210 195 184 181 175 175 175 174 169 185 189 176 180 191 193 185 209 203 201 203 168 214 203 216 84 102 140 122 105 73 54 68 42 339
271 299 267 226 246 226 228 234 224 244 218 206 217 205 209 189 185 179 185 176 171 176 175 175 183 171 173 185 190 191 191 205 206 201 203 171 217 135 121 113 123 139 130 107 139 143 79 37 332
255 261 273 275 220 230 230 224 237 216 242 213 205 208 206 185 182 179 183 177 174 178 174 176 183 183 175 171 189 171 218 167 208 204 174 158 114 127 138 142 165 155 136 139 125 171 184 272 29
254 250 248 261 230 225 232 237 210 222 231 226 210 212 204 199 181 180 179 177 174 180 180 182 181 179 191 168 188 143 161 195 133 125 112 120 134 149 152 161 167 165 176 145 134 81 49 7 66
256 228 239 255 220 261 210 225 219 208 217 222 235 205 200 196 180 180 179 180 178 179 181 184 181 174 191 174 173 168 187 189 167 181 138 131 143 153 154 163 159 152 91 119 105 41 25 334 21
242 265 246 286 268 251 199 228 219 201 205 216 214 213 202 187 181 183 181 179 177 177 177 174 177 175 179 177 182 178 188 151 141 134 135 144 149 155 162 152 151 133 93 67 22 31 23 27 10
255 263 262 316 273 253 222 208 233 188 197 207 204 205 201 183 180 178 181 172 174 176 173 172 178 173 178 175 202 184 196 149 144 148 145 154 159 152 144 119 93 73 96 109 122 88 38 31 18
174 127 208 226 210 223 192 191 229 176 195 195 195 201 194 180 175 177 180 170 168 169 170 171 175 168 174 181 178 182 168 156 160 158 176 167 158 144 133 102 102 102 58 23 51 56 46 36 10
201 203 287 186 209 195 182 190 217 249 184 189 191 193 188 188 171 180 180 174 172 166 169 172 167 161 151 168 176 175 156 170 177 194 155 179 157 139 104 106 107 90 81 66 325 64 25 25 346
230 169 299 312 270 158 174 166 177 224 170 179 177 187 183 180 169 176 181 173 174 166 166 163 164 161 163 174 172 168 161 188 169 118 114 109 102 112 102 95 85 68 69 41 289 30 22 346 347
225 132 284 214 197 300 160 177 137 184 164 179 172 175 174 176 170 173 174 173 169 160 152 152 156 150 150 161 143 103 114 84 110 98 101 102 100 93 94 88 84 66 39 37 326 347 37 344 337
209 231 202 223 121 254 134 82 328 150 175 174 170 157 165 183 172 171 167 161 164 134 139 147 162 145 102 97 92 89 79 89 88 90 91 97 94 97 94 84 78 69 60 16 347 10 18 340 357
301 316 332 280 25 314 131 291 58 93 88 167 185 163 160 175 170 162 160 170 149 154 126 132 89 98 99 89 87 91 90 93 91 91 88 81 83 77 91 90 68 134 76 5 9 346 358 341 348